• Join FlightAware (Why Join?)
  • Login
  • US Flag 
11:17AM EDT


 

Airport Tracker/Info


-or-


 

Live Flight TrackerFlight Track Log ✈ UAL4498 ✈ 26-Apr-2014 ✈ KIAD - KCVG

Flight Track Log - Related Links

Times and Time Zones

All times are in EDT time to prevent confusion due to time zone crossing. See the UAL4498 flight status page for this flight to view local times or setup timezone preferences in your user account.

Time Position Orientation Groundspeed Altitude Reporting Facility
EDT Latitude Longitude Course Direction KTS MPH feet Rate Location/Type
05:43PM 38.9333 -77.5333 288° West 159 183 2,500  Level Potomac TRACON
05:44PM 38.9167 -77.6000 252° West 229 264 4,100 2,160 Climbing Potomac TRACON
05:45PM 38.8961 -77.7100 257° West 224 258 8,200 2,820 Climbing Washington Center
05:46PM 38.8825 -77.7936 258° West 209 241 11,700 2,460 Climbing Washington Center
05:47PM 38.8747 -77.8567 261° West 186 214 13,300 1,080 Climbing Washington Center
05:48PM 38.7986 -77.9775 288° West  Level FlightAware Approximate
05:49PM 38.8711 -77.9397 267° West 230 265 14,000  Level Washington Center
05:50PM 38.8653 -78.0397 266° West 276 318 14,700 840 Climbing Washington Center
05:51PM 38.8586 -78.1525 266° West 311 358 15,800 1,260 Climbing Washington Center
05:52PM 38.8536 -78.2861 267° West 312 359 17,300 1,380 Climbing Washington Center
05:53PM 38.8522 -78.3958 269° West 312 359 18,700 1,320 Climbing Washington Center
05:54PM 38.8514 -78.5078 269° West 311 358 20,100 1,260 Climbing Washington Center
05:55PM 38.8503 -78.6253 269° West 325 374 21,400 1,200 Climbing Washington Center
05:56PM 38.8492 -78.7419 269° West 326 375 22,600 1,200 Climbing Washington Center
05:57PM 38.8469 -78.8592 269° West 326 375 24,000 1,380 Climbing Washington Center
05:58PM 38.8442 -79.0003 269° West 329 379 25,500 1,320 Climbing Washington Center
05:59PM 38.8428 -79.1147 269° West 327 376 26,800 1,200 Climbing Washington Center
06:00PM 38.8400 -79.2269 268° West 322 371 28,100 1,200 Climbing Washington Center
06:01PM 38.8389 -79.3394 269° West 318 366 29,400 1,200 Climbing Washington Center
06:02PM 38.8364 -79.4481 268° West 309 356 30,700 1,200 Climbing Washington Center
06:03PM 38.8350 -79.5569 269° West 307 353 31,900 600 Climbing Washington Center
06:04PM 38.8311 -79.6753 268° West 317 365 32,000  Climbing Washington Center
06:05PM 38.8283 -79.8131 269° West 330 380 32,000  Level Washington Center
06:06PM 38.8256 -79.8789 267° West 333 383 32,000  Level Indianapolis Center
06:07PM 38.8228 -79.9992 268° West 334 384 32,000  Level Indianapolis Center
06:08PM 38.8206 -80.1178 269° West 334 384 32,000  Level Indianapolis Center
06:09PM 38.8158 -80.2347 267° West 333 383 32,000  Level Indianapolis Center
06:10PM 38.8131 -80.3750 269° West 332 382 32,000  Level Indianapolis Center
06:11PM 38.8031 -80.4933 264° West 331 381 32,000  Level Indianapolis Center
06:12PM 38.7864 -80.6094 260° West 331 381 32,000  Level Indianapolis Center
06:13PM 38.7711 -80.7264 261° West 332 382 32,000  Level Indianapolis Center
06:14PM 38.7544 -80.8456 260° West 333 383 32,000  Level Indianapolis Center
06:15PM 38.7383 -80.9636 260° West 335 386 32,000  Level Indianapolis Center
06:16PM 38.7214 -81.0872 260° West 346 398 32,000  Level Indianapolis Center
06:17PM 38.7042 -81.2083 260° West 346 398 32,000  Level Indianapolis Center
06:18PM 38.6869 -81.3328 260° West 349 402 32,000  Level Indianapolis Center
06:19PM 38.6681 -81.4625 259° West 352 405 32,000 -300 Level Indianapolis Center
06:20PM 38.6467 -81.6086 259° West 352 405 31,500 -780 Descending Indianapolis Center
06:21PM 38.6319 -81.7197 260° West 358 412 30,500 -1,080 Descending Indianapolis Center
06:22PM 38.6133 -81.8478 260° West 361 415 29,300 -1,320 Descending Indianapolis Center
06:23PM 38.5900 -82.0039 259° West 367 422 27,900 -1,320 Descending Indianapolis Center
06:24PM 38.5708 -82.1378 260° West 377 434 26,700 -1,200 Descending Indianapolis Center
06:25PM 38.5503 -82.2700 259° West 377 434 25,500 -1,200 Descending Indianapolis Center
06:26PM 38.5300 -82.4069 259° West 386 444 24,300 -960 Descending Indianapolis Center
06:27PM 38.5078 -82.5567 259° West 388 447 23,600 -780 Descending Indianapolis Center
06:28PM 38.4869 -82.6928 259° West 389 448 22,800 -840 Descending Indianapolis Center
06:29PM 38.4917 -82.8261 273° West 385 443 22,000 -840 Descending Indianapolis Center
06:30PM 38.5061 -82.9564 278° West 378 435 21,200 -840 Descending Indianapolis Center
06:31PM 38.5211 -83.0839 279° West 371 427 20,300 -840 Descending Indianapolis Center
06:32PM 38.5353 -83.2094 278° West 363 418 19,600 -1,020 Descending Indianapolis Center
06:33PM 38.5494 -83.3322 278° West 357 411 18,300 -1,560 Descending Indianapolis Center
06:34PM 38.5661 -83.4803 278° West 357 411 16,500 -1,800 Descending Indianapolis Center
06:35PM 38.5792 -83.6028 278° West 356 410 14,700 -1,680 Descending Indianapolis Center
06:36PM 38.5925 -83.7189 278° West 341 392 13,100 -1,800 Descending Indianapolis Center
06:37PM 38.6036 -83.8319 277° West 330 380 11,100 -1,560 Descending Indianapolis Center
06:38PM 38.6206 -83.9381 282° West 314 361 10,000 -540 Descending Indianapolis Center
06:39PM 38.6756 -84.0400 305° West 321 369 10,000  Level Indianapolis Center
06:41PM 38.7250 -84.1372 303° West 323 372 10,000  Level Indianapolis Center
06:42PM 38.7733 -84.2283 304° West 317 365 10,000  Level Indianapolis Center
06:43PM 38.8194 -84.3186 303° West 308 354 10,000 -480 Level Indianapolis Center
06:44PM 38.8592 -84.3950 304° West 271 312 9,100 -540 Descending Indianapolis Center
06:45PM 38.8986 -84.4733 303° West 265 305 9,000 -60 Descending Indianapolis Center
06:46PM 38.9514 -84.5372 317° Northwest 269 310 9,000 -300 Level Indianapolis Center
06:47PM 39.0247 -84.5400 358° North 262 302 8,400 -960 Descending Indianapolis Center
06:48PM 39.1083 -84.5411 359° North 256 295 7,100 -1,440 Descending Indianapolis Center
06:49PM 39.1667 -84.5544 350° North 232 267 5,500 -1,560 Descending Indianapolis Center
06:50PM 39.1711 -84.6386 274° West 224 258 4,000 -1,620 Descending Indianapolis Center
06:51PM 39.1167 -84.6500 189° South 175 201 2,300 -1,440 Descending Cincinnati TRACON
06:52PM 39.0667 -84.6500 180° South 140 161 1,200 -1,140 Descending Cincinnati TRACON